[[{"header":{"parameterUnit":"m.s-1","parameterCategory":2,"la1":30.2991,"la2":30.254,"lo1":-89.0895,"lo2":-89.0444,"dy":0.0017,"dx":0.0017,"nx":28,"ny":28,"refTime":"2025-08-24T03:00:00:Z","depth":"0","parameterNumber":2,"parameterNumberName":"U-component_of_CURRENTS"},"data":[0,0,0,0,0,0,0,0,0,0,0,0,0,0,0,0,0,0,0,0,0,0,0,0,0,0,0,0,0,0,0,0,0,0,0,0,0,0,0,0,0,0,0,0,0,0,0,0,0,0,0,0,0,0,0,0,0,0,0.143,0.1431,0,0.1473,0.1474,0.1474,0.1456,0.1455,0.1454,0.1453,0.1527,0.153,0.1533,0,0,0,0,0,0,0,0,0,0,0,0,0,0.1433,0.1432,0.143,0.1431,0.1431,0.1473,0.1474,0.1474,0.1456,0.1455,0.1454,0.1452,0.1526,0.153,0.1533,0,0,0,0,0,0,0,0,0,0,0,0,0,0.145,0.1432,0.143,0.1427,0.1427,0.1473,0.1474,0.1474,0.1457,0.1455,0.1453,0.1452,0.1525,0.153,0.1534,0.1595,0,0,0.1548,0.155,0,0,0,0,0,0,0,0,0.1449,0.145,0.1427,0.1427,0.1427,0.1457,0.1502,0.1516,0.1457,0.1446,0.1453,0.1451,0.1507,0.1513,0.1526,0.1599,0.1602,0.1548,0.1551,0.1553,0.1554,0,0,0,0,0,0,0,0.1447,0.1448,0.1448,0.1427,0.1428,0.1457,0.1457,0.1505,0.1487,0.1447,0.1446,0.145,0.1508,0.1521,0.1527,0.1603,0.1548,0.1552,0.1555,0.1557,0.174,0.1742,0,0,0,0,0,0,0.1437,0.1447,0.1447,0.1449,0.1433,0.1458,0.1458,0.145,0.1486,0.1489,0.1451,0.1449,0.1515,0.1522,0.153,0.1599,0.1553,0.1557,0.156,0.1738,0.174,0.1743,0,0,0,0,0,0,0.1437,0.1436,0.1445,0.1449,0.1452,0.1459,0.1451,0.1451,0.1464,0.1488,0.1492,0.1462,0.1514,0.1524,0.1591,0.1602,0.1559,0.1563,0.1735,0.1739,0.1742,0.1742,0,0,0,0,0,0,0.1436,0.1436,0.1432,0.1448,0.1451,0.1474,0.1452,0.1453,0.1469,0.1466,0.15,0.1504,0.1513,0.1584,0.1596,0.1608,0.1567,0.1733,0.1737,0.1741,0.1739,0.1745,0.175,0,0,0,0,0,0.1436,0.1435,0.1431,0.1431,0.1443,0.1475,0.148,0.148,0.1471,0.1485,0.1518,0.1503,0.1617,0.1591,0.1603,0.1616,0.1731,0.1736,0.174,0.1737,0.1744,0.1749,0,0,0,0,0,0,0.1434,0.1434,0.1429,0.1427,0.145,0.1471,0.1481,0.1489,0.1526,0.1522,0.1543,0.1553,0.1613,0.163,0.16,0.1685,0.1667,0.1675,0.1661,0.1667,0.1672,0.1659,0.157,0,0,0,0,0,0.1432,0.1428,0.1444,0.1444,0.1453,0.1471,0.1485,0.1489,0.1521,0.1533,0.156,0.1598,0.1646,0.1667,0.171,0.1767,0.1801,0.1783,0.1788,0.1792,0.1793,0.1874,0.1886,0.1759,0.1759,0.1759,0,0,0.143,0.1431,0.1427,0.1443,0.1456,0.1479,0.1475,0.1497,0.1519,0.154,0.1585,0.1623,0.1669,0.1725,0.1752,0.1737,0.1849,0.1798,0.18,0.1799,0.188,0.1892,0.1903,0.1762,0.1762,0.1761,0,0,0.1435,0.1426,0.1431,0.145,0.1473,0.1488,0.1496,0.1527,0.154,0.1601,0.1618,0.1671,0.174,0.177,0.1796,0.1865,0.1879,0.1873,0.1882,0.196,0.1971,0.198,0.2045,0.2061,0.1869,0.1869,0.1869,0,0.1435,0.1437,0.1442,0.1461,0.1476,0.1492,0.1514,0.154,0.1591,0.162,0.1614,0.1733,0.1761,0.1836,0.1848,0.1873,0.1918,0.1846,0.1965,0.1975,0.1985,0.2049,0.2066,0.1869,0.1869,0.1869,0.1869,0,0.1451,0.1455,0.1463,0.1483,0.1506,0.1527,0.1558,0.159,0.1611,0.1643,0.1725,0.1775,0.1842,0.1857,0.187,0.1952,0.1963,0.1964,0.1939,0.1997,0.2062,0.2079,0.187,0.187,0.187,0.187,0,0,0.1446,0.1467,0.147,0.1487,0.1517,0.1542,0.158,0.1633,0.1675,0.172,0.1789,0.1853,0.1877,0.191,0.1935,0.199,0.2091,0.1999,0.2003,0.2047,0.2266,0.2257,0.2276,0.2114,0.2117,0.2119,0.2284,0,0.146,0.1486,0.1496,0.1534,0.1555,0.1581,0.1622,0.1672,0.172,0.1794,0.1845,0.1922,0.1898,0.194,0.1989,0.2084,0.2137,0.2046,0.2218,0.2223,0.2195,0.2296,0.223,0.237,0.2301,0.2304,0.2306,0,0.1479,0.1493,0.1521,0.1566,0.1579,0.1606,0.1678,0.1719,0.1812,0.1855,0.1923,0.1972,0.2066,0.2037,0.2195,0.2142,0.2197,0.2252,0.226,0.2261,0.2248,0.2304,0.2405,0.2313,0.2333,0.2331,0.2329,0,0.1485,0.1518,0.1538,0.1551,0.1601,0.1628,0.1662,0.1741,0.1797,0.1903,0.1969,0.2065,0.2147,0.2227,0.2317,0.2276,0.2497,0.2459,0.2498,0.2498,0.248,0.2473,0.2497,0.2565,0.2564,0.2564,0.2563,0,0.1501,0.1523,0.1542,0.1559,0.1608,0.1636,0.1709,0.176,0.1852,0.1933,0.2,0.209,0.2202,0.2327,0.2375,0.2507,0.2549,0.2527,0.2553,0.248,0.2471,0.2419,0.237,0.257,0.2569,0.2568,0.2566,0,0.1516,0.152,0.1559,0.1599,0.1615,0.1655,0.1734,0.1789,0.187,0.1983,0.2024,0.2164,0.2318,0.2422,0.2589,0.2603,0.2647,0.2737,0.2635,0.2646,0.2563,0.2516,0.2509,0.2437,0.2815,0.2816,0.2817,0,0.1523,0.1539,0.1587,0.1608,0.1627,0.1683,0.1722,0.1797,0.1853,0.2021,0.2077,0.2257,0.2364,0.2608,0.2691,0.2809,0.2693,0.2802,0.2696,0.2574,0.2543,0.2414,0.2343,0.2682,0.2682,0.2682,0.2682,0,0.1538,0.1555,0.1582,0.1624,0.166,0.1713,0.1767,0.1814,0.1907,0.2001,0.2135,0.2237,0.2464,0.257,0.2728,0.2781,0.2659,0.2798,0.2713,0.2483,0.2306,0.2244,0.2544,0.2679,0.2679,0.2679,0.268,0.268,0.154,0.1564,0.1587,0.1632,0.1674,0.1713,0.1739,0.1798,0.1878,0.199,0.2124,0.2247,0.2432,0.2643,0.2682,0.2692,0.2642,0.2625,0.2596,0.2489,0.2356,0.2641,0.277,0.2771,0.2772,0.2772,0.2773,0,0.1509,0.1536,0.1584,0.162,0.165,0.1684,0.174,0.175,0.1804,0.1939,0.2049,0.2227,0.2354,0.2472,0.2568,0.25,0.238,0.2435,0.223,0.2183,0.2495,0.2422,0.243,0.243,0.243,0.243,0.243,0.243,0.1483,0.1502,0.1532,0.1563,0.1595,0.1603,0.1621,0.1651,0.172,0.1819,0.1905,0.2031,0.2214,0.2384,0.2359,0.2312,0.2108,0.2048,0.2005,0.221,0.2224,0.2236,0.2155,0.2107,0.2107,0.1608,0.1604,0.1601]},{"header":{"parameterUnit":"m.s-1","parameterCategory":2,"la1":30.2991,"la2":30.254,"lo1":-89.0895,"lo2":-89.0444,"dy":0.0017,"dx":0.0017,"nx":28,"ny":28,"refTime":"2025-08-24T03:00:00:Z","depth":"0","parameterNumber":3,"parameterNumberName":"V-component_of_CURRENTS"},"data":[0,0,0,0,0,0,0,0,0,0,0,0,0,0,0,0,0,0,0,0,0,0,0,0,0,0,0,0,0,0,0,0,0,0,0,0,0,0,0,0,0,0,0,0,0,0,0,0,0,0,0,0,0,0,0,0,0,0,0.0129,0.0129,0,0.0126,0.0126,0.0126,0.0079,0.0077,0.0076,0.0075,0.0168,0.0172,0.0176,0,0,0,0,0,0,0,0,0,0,0,0,0,0.0174,0.0173,0.0129,0.0129,0.0128,0.0126,0.0126,0.0126,0.0079,0.0077,0.0076,0.0074,0.0167,0.0171,0.0176,0,0,0,0,0,0,0,0,0,0,0,0,0,0.0164,0.0173,0.0129,0.0102,0.01,0.0126,0.0126,0.0126,0.008,0.0077,0.0075,0.0073,0.0165,0.0171,0.0177,0.0257,0,0,0.0194,0.0197,0,0,0,0,0,0,0,0,0.0164,0.0163,0.0107,0.0104,0.0101,0.0098,0.0176,0.0174,0.008,0.0091,0.0075,0.0072,0.0153,0.016,0.0167,0.0262,0.0266,0.0195,0.0199,0.0201,0.0203,0,0,0,0,0,0,0,0.0165,0.0163,0.0131,0.0106,0.0103,0.0117,0.0113,0.0176,0.0139,0.009,0.0085,0.0081,0.0152,0.0162,0.0169,0.0267,0.0195,0.02,0.0204,0.0206,0.0393,0.0394,0,0,0,0,0,0,0.0157,0.0163,0.0131,0.0131,0.0124,0.0118,0.0113,0.0104,0.0136,0.0137,0.0082,0.0078,0.0153,0.0163,0.0173,0.025,0.0201,0.0206,0.021,0.0391,0.0393,0.0395,0,0,0,0,0,0,0.0158,0.0154,0.0131,0.0145,0.0142,0.0118,0.0109,0.0105,0.011,0.0129,0.0132,0.009,0.0152,0.0164,0.0251,0.0254,0.0209,0.0214,0.0389,0.0392,0.0394,0.042,0,0,0,0,0,0,0.016,0.0155,0.0154,0.0144,0.0141,0.0172,0.0111,0.0106,0.0109,0.0103,0.0138,0.0143,0.0151,0.0243,0.0257,0.0262,0.0219,0.0388,0.039,0.0393,0.0417,0.0422,0.0427,0,0,0,0,0,0.0161,0.0173,0.0154,0.0151,0.0138,0.0174,0.0176,0.0153,0.0111,0.0143,0.0162,0.0142,0.0267,0.0251,0.0267,0.0272,0.0386,0.039,0.0393,0.0415,0.0421,0.0427,0,0,0,0,0,0,0.0198,0.0169,0.0148,0.015,0.017,0.0165,0.0182,0.0163,0.02,0.0189,0.0194,0.0206,0.0271,0.0285,0.0265,0.0333,0.0311,0.0318,0.0322,0.0329,0.0334,0.03,0.0224,0,0,0,0,0,0.0204,0.0201,0.0193,0.0201,0.0207,0.0195,0.0204,0.0194,0.0215,0.0225,0.0247,0.0267,0.03,0.0326,0.0366,0.0434,0.0416,0.0437,0.0442,0.0446,0.043,0.0427,0.0429,0.0405,0.0405,0.0405,0,0,0.0218,0.0204,0.0201,0.0209,0.0211,0.0241,0.0197,0.0221,0.0239,0.0237,0.0284,0.0303,0.0325,0.0382,0.0409,0.0394,0.0449,0.0451,0.0454,0.0435,0.043,0.0432,0.0434,0.0408,0.0407,0.0407,0,0,0.0257,0.0237,0.025,0.0273,0.0284,0.0283,0.0293,0.0303,0.0299,0.0365,0.0341,0.0365,0.0443,0.0435,0.0443,0.0508,0.048,0.0518,0.0517,0.0515,0.0516,0.0517,0.0508,0.0507,0.0516,0.0516,0.0516,0,0.0278,0.0281,0.027,0.0301,0.0313,0.0303,0.0335,0.0349,0.0387,0.0388,0.0388,0.0437,0.0455,0.0476,0.0483,0.0514,0.0511,0.049,0.0519,0.0519,0.0519,0.0509,0.0508,0.0517,0.0517,0.0517,0.0517,0,0.0326,0.0338,0.0357,0.0375,0.0402,0.0435,0.0442,0.0466,0.0457,0.0457,0.0488,0.0509,0.0522,0.0527,0.0527,0.0529,0.0527,0.0528,0.0495,0.0522,0.0512,0.051,0.052,0.0519,0.0519,0.0518,0,0,0.0345,0.0378,0.0384,0.0403,0.0437,0.0466,0.0496,0.0516,0.0527,0.0547,0.0562,0.0574,0.0553,0.0559,0.0549,0.0535,0.0532,0.053,0.0529,0.0506,0.0527,0.0518,0.0515,0.0544,0.0544,0.0543,0.0522,0,0.0384,0.0437,0.0443,0.0507,0.0535,0.0539,0.0572,0.0589,0.0602,0.063,0.0598,0.0633,0.0575,0.0592,0.0559,0.0565,0.0529,0.0537,0.0515,0.0514,0.0491,0.0513,0.0468,0.0444,0.052,0.052,0.052,0,0.0421,0.045,0.0503,0.0551,0.0564,0.0605,0.0636,0.067,0.0689,0.07,0.0689,0.0687,0.0669,0.0628,0.0579,0.0595,0.0543,0.0524,0.0523,0.0497,0.0502,0.0429,0.0438,0.0292,0.0517,0.0517,0.0517,0,0.0428,0.0491,0.0526,0.0549,0.0606,0.0626,0.0656,0.0685,0.0725,0.0751,0.0799,0.0752,0.0781,0.0697,0.0637,0.062,0.0593,0.057,0.0495,0.0494,0.0439,0.0433,0.0286,0.0499,0.0499,0.0499,0.0499,0,0.0456,0.0493,0.0535,0.0564,0.0626,0.0649,0.0716,0.0739,0.0793,0.0867,0.0836,0.0896,0.0805,0.0782,0.0675,0.0593,0.0615,0.0487,0.0487,0.045,0.0446,0.0303,0.0245,0.0499,0.0499,0.0499,0.0499,0,0.047,0.0489,0.055,0.0609,0.0635,0.0683,0.078,0.0832,0.0876,0.0979,0.1002,0.1031,0.1012,0.0899,0.0807,0.068,0.0502,0.0532,0.0493,0.0487,0.027,0.0217,0.0099,0.0046,0.0444,0.0443,0.0443,0,0.0483,0.051,0.0591,0.064,0.0675,0.0751,0.081,0.0869,0.094,0.107,0.113,0.1158,0.1181,0.1038,0.0826,0.0631,0.0504,0.0456,0.0392,0.0242,0.0183,0.0153,0.0115,0.0332,0.0331,0.033,0.0329,0,0.0521,0.0544,0.0598,0.0693,0.0765,0.0855,0.0946,0.1016,0.1103,0.12,0.1327,0.1361,0.1238,0.1052,0.0794,0.0638,0.0355,0.043,0.0282,0.0082,0.0033,-0.0012,0.036,0.032,0.0321,0.0322,0.0322,0.0323,0.0553,0.0601,0.0667,0.076,0.0845,0.0948,0.1027,0.1132,0.1257,0.1407,0.1443,0.1505,0.1224,0.0877,0.0673,0.0247,0.0292,0.0097,0.0046,0.0031,-0.0035,0.0318,0.0278,0.0279,0.0279,0.028,0.028,0,0.0578,0.0637,0.0733,0.084,0.0929,0.0968,0.111,0.1193,0.1341,0.1469,0.1568,0.1436,0.108,0.0722,0.0174,-0.0102,-0.02,-0.0248,-0.0333,-0.0353,-0.0048,-0.007,-0.0195,-0.0195,-0.0195,-0.0195,-0.0195,-0.0194,0.0592,0.0671,0.0724,0.0879,0.0959,0.1078,0.1156,0.1291,0.1397,0.1534,0.1556,0.1562,0.125,0.0323,-0.0307,-0.0447,-0.0634,-0.0671,-0.0721,-0.0564,-0.0537,-0.0512,-0.055,-0.0773,-0.0774,-0.1025,-0.1027,-0.1029]}],[{"header":{"parameterUnit":"m.s-1","parameterCategory":2,"la1":30.2991,"la2":30.254,"lo1":-89.0895,"lo2":-89.0444,"dy":0.0017,"dx":0.0017,"nx":28,"ny":28,"refTime":"2025-08-24T03:00:00:Z","depth":"2","parameterNumber":2,"parameterNumberName":"U-component_of_CURRENTS"},"data":[0,0,0,0,0,0,0,0,0,0,0,0,0,0,0,0,0,0,0,0,0,0,0,0,0,0,0,0,0,0,0,0,0,0,0,0,0,0,0,0,0,0,0,0,0,0,0,0,0,0,0,0,0,0,0,0,0,0,0.1327,0.1328,0,0.1392,0.1393,0.1394,0.1384,0.1383,0.1382,0.138,0.1427,0.1429,0.1432,0,0,0,0,0,0,0,0,0,0,0,0,0,0.1324,0.1324,0.1327,0.1328,0.1328,0.1392,0.1393,0.1395,0.1385,0.1383,0.1381,0.138,0.1426,0.1429,0.1432,0,0,0,0,0,0,0,0,0,0,0,0,0,0.1353,0.1324,0.1327,0.1329,0.133,0.1392,0.1394,0.1395,0.1385,0.1383,0.1381,0.1379,0.1425,0.1429,0.1432,0.1496,0,0,0.1444,0.1445,0,0,0,0,0,0,0,0,0.1351,0.1353,0.1328,0.1329,0.133,0.1376,0.1409,0.1427,0.1385,0.1367,0.138,0.1378,0.1408,0.1413,0.1434,0.1498,0.15,0.1444,0.1446,0.1448,0.1449,0,0,0,0,0,0,0,0.1349,0.1351,0.1356,0.1329,0.133,0.1371,0.1372,0.1414,0.1399,0.1368,0.1367,0.1371,0.1408,0.143,0.1434,0.15,0.1444,0.1447,0.145,0.1451,0.1605,0.1606,0,0,0,0,0,0,0.1331,0.1349,0.1353,0.1357,0.1333,0.1372,0.1374,0.1365,0.1399,0.1402,0.1373,0.137,0.1425,0.143,0.1436,0.148,0.1448,0.1451,0.1454,0.1603,0.1605,0.1607,0,0,0,0,0,0,0.1331,0.1331,0.1351,0.1354,0.1358,0.1373,0.1365,0.1368,0.1388,0.1402,0.1405,0.1389,0.1423,0.1431,0.1473,0.1482,0.1453,0.1456,0.1601,0.1604,0.1606,0.1589,0,0,0,0,0,0,0.133,0.133,0.1329,0.1352,0.1357,0.1395,0.1367,0.137,0.1392,0.139,0.1418,0.142,0.1422,0.1467,0.1477,0.1487,0.1459,0.1598,0.1602,0.1605,0.1587,0.159,0.1594,0,0,0,0,0,0.133,0.1328,0.1328,0.133,0.1351,0.1396,0.1405,0.1411,0.1395,0.1419,0.1428,0.1419,0.1496,0.1472,0.1483,0.1494,0.1597,0.1601,0.1605,0.1585,0.159,0.1593,0,0,0,0,0,0,0.1323,0.1327,0.1328,0.1326,0.1364,0.1394,0.1408,0.142,0.145,0.1438,0.1448,0.1453,0.1495,0.151,0.1484,0.1553,0.1544,0.1551,0.1526,0.153,0.1534,0.1545,0.1463,0,0,0,0,0,0.1323,0.1322,0.1347,0.135,0.1363,0.1392,0.1411,0.1421,0.1445,0.1455,0.1476,0.1498,0.1526,0.1537,0.1573,0.1614,0.164,0.163,0.1634,0.1636,0.1655,0.1719,0.1729,0.1621,0.1621,0.1621,0,0,0.1321,0.1325,0.1323,0.1351,0.1371,0.1399,0.1399,0.1429,0.145,0.1458,0.1493,0.1519,0.1544,0.1582,0.1602,0.159,0.1676,0.1641,0.1642,0.1661,0.1724,0.1734,0.1743,0.1624,0.1623,0.1623,0,0,0.133,0.132,0.1332,0.1359,0.1394,0.1411,0.1421,0.1462,0.1474,0.1524,0.1525,0.1555,0.1611,0.162,0.1631,0.1683,0.1699,0.1699,0.1713,0.1773,0.1782,0.1791,0.1807,0.1817,0.169,0.169,0.169,0,0.1332,0.1341,0.135,0.1376,0.1392,0.1413,0.1442,0.1466,0.1518,0.1539,0.1532,0.1622,0.1625,0.1669,0.1675,0.1686,0.1722,0.1684,0.1775,0.1784,0.1793,0.1809,0.182,0.169,0.169,0.169,0.169,0,0.1353,0.1368,0.1377,0.1404,0.1431,0.1457,0.1484,0.1516,0.153,0.156,0.1624,0.1649,0.1699,0.17,0.1697,0.1763,0.1767,0.1775,0.1756,0.1803,0.1816,0.1828,0.1689,0.1689,0.1689,0.1689,0,0,0.1338,0.1383,0.1386,0.141,0.1443,0.1471,0.1498,0.1545,0.1574,0.1623,0.1682,0.171,0.1736,0.1755,0.1763,0.1804,0.1861,0.1817,0.182,0.1817,0.1983,0.1903,0.1908,0.1897,0.19,0.1902,0.1954,0,0.1356,0.1402,0.1416,0.1463,0.1491,0.1509,0.154,0.1582,0.1618,0.1683,0.1713,0.1776,0.1751,0.1785,0.1821,0.1877,0.19,0.1845,0.1954,0.1957,0.1868,0.1922,0.1784,0.1815,0.1966,0.1968,0.197,0,0.1372,0.1404,0.1449,0.1501,0.1513,0.1541,0.1591,0.1627,0.17,0.1736,0.1797,0.1839,0.1904,0.1883,0.198,0.1957,0.1968,0.1993,0.1996,0.1944,0.1901,0.1803,0.1831,0.199,0.1988,0.1987,0.1985,0,0.137,0.1423,0.1457,0.1473,0.1535,0.1557,0.1587,0.1647,0.1691,0.1785,0.1843,0.192,0.1988,0.2034,0.2074,0.2044,0.2191,0.2145,0.2074,0.2066,0.1981,0.1962,0.2208,0.2208,0.2208,0.2208,0.2207,0,0.1378,0.141,0.1459,0.1486,0.1532,0.1568,0.163,0.1669,0.175,0.1814,0.1878,0.1946,0.2042,0.2126,0.2127,0.2151,0.2228,0.2095,0.209,0.1967,0.1946,0.2131,0.2122,0.221,0.2209,0.2209,0.2208,0,0.1376,0.1406,0.1463,0.1524,0.154,0.1578,0.1651,0.1697,0.1771,0.1864,0.1903,0.2013,0.2087,0.2158,0.2248,0.2218,0.2246,0.2226,0.2054,0.2027,0.2053,0.2042,0.213,0.2127,0.2126,0.2124,0.2123,0,0.1378,0.1408,0.1483,0.1513,0.1542,0.1597,0.1632,0.1704,0.1745,0.1883,0.1921,0.2037,0.2075,0.2178,0.2163,0.216,0.2206,0.2032,0.1926,0.2066,0.2053,0.2045,0.2037,0.1796,0.1792,0.1789,0.1787,0,0.1388,0.1418,0.1462,0.1519,0.1562,0.1611,0.1658,0.1688,0.1772,0.1834,0.1907,0.1956,0.2031,0.1975,0.1997,0.1966,0.2018,0.1962,0.2212,0.1826,0.1753,0.1739,0.1743,0.1759,0.1762,0.1764,0.1765,0.1766,0.1387,0.1413,0.1462,0.1508,0.1564,0.159,0.1608,0.1642,0.1681,0.172,0.1804,0.1812,0.1844,0.1759,0.1729,0.1716,0.1803,0.1741,0.1751,0.1764,0.1705,0.1632,0.1603,0.1604,0.1606,0.1607,0.1608,0,0.1352,0.1379,0.1433,0.1486,0.1519,0.1563,0.1594,0.1568,0.1559,0.1604,0.1619,0.1481,0.1457,0.1496,0.1425,0.142,0.1408,0.1375,0.1358,0.1386,0.1411,0.1334,0.1134,0.1132,0.113,0.1129,0,0,0.1332,0.1346,0.1365,0.1397,0.1446,0.1461,0.1463,0.1427,0.1424,0.1325,0.1309,0.138,0.1455,0.1264,0.1246,0.1191,0.1279,0.115,0.1534,0.1544,0.1567,0.1629,0.1544,0,0,0,0,0]},{"header":{"parameterUnit":"m.s-1","parameterCategory":2,"la1":30.2991,"la2":30.254,"lo1":-89.0895,"lo2":-89.0444,"dy":0.0017,"dx":0.0017,"nx":28,"ny":28,"refTime":"2025-08-24T03:00:00:Z","depth":"2","parameterNumber":3,"parameterNumberName":"V-component_of_CURRENTS"},"data":[0,0,0,0,0,0,0,0,0,0,0,0,0,0,0,0,0,0,0,0,0,0,0,0,0,0,0,0,0,0,0,0,0,0,0,0,0,0,0,0,0,0,0,0,0,0,0,0,0,0,0,0,0,0,0,0,0,0,-0.0061,-0.0062,0,-0.0091,-0.0091,-0.0091,-0.0127,-0.0128,-0.0129,-0.013,-0.0128,-0.0127,-0.0126,0,0,0,0,0,0,0,0,0,0,0,0,0,0.0008,0.0007,-0.0061,-0.0062,-0.0063,-0.0091,-0.0091,-0.0091,-0.0127,-0.0128,-0.0129,-0.013,-0.0128,-0.0127,-0.0126,0,0,0,0,0,0,0,0,0,0,0,0,0,-0.0019,0.0006,-0.0061,-0.0086,-0.0089,-0.0091,-0.0091,-0.0091,-0.0127,-0.0128,-0.0129,-0.013,-0.0128,-0.0127,-0.0126,-0.0093,0,0,-0.0122,-0.0122,0,0,0,0,0,0,0,0,-0.0018,-0.0021,-0.0082,-0.0084,-0.0088,-0.0109,-0.0066,-0.0091,-0.0126,-0.0109,-0.013,-0.0131,-0.012,-0.0119,-0.0118,-0.0093,-0.0093,-0.0122,-0.0121,-0.0121,-0.012,0,0,0,0,0,0,0,-0.0016,-0.002,-0.007,-0.0082,-0.0086,-0.0081,-0.0086,-0.0071,-0.0104,-0.0111,-0.0114,-0.0122,-0.0121,-0.0119,-0.0118,-0.0093,-0.0122,-0.0121,-0.012,-0.012,-0.0029,-0.0028,0,0,0,0,0,0,-0.0019,-0.0018,-0.0069,-0.0071,-0.0058,-0.0081,-0.0087,-0.0099,-0.0105,-0.0109,-0.0121,-0.0123,-0.0121,-0.012,-0.0118,-0.0102,-0.0121,-0.012,-0.0119,-0.0031,-0.0029,-0.0027,0,0,0,0,0,0,-0.0017,-0.0023,-0.0068,-0.0047,-0.0053,-0.0082,-0.0094,-0.0099,-0.0098,-0.0114,-0.0116,-0.0116,-0.0122,-0.012,-0.0109,-0.0101,-0.0119,-0.0118,-0.0033,-0.003,-0.0028,-0.0054,0,0,0,0,0,0,-0.0015,-0.0023,-0.0024,-0.0048,-0.0055,-0.0045,-0.0093,-0.0098,-0.0102,-0.0106,-0.011,-0.0112,-0.0123,-0.011,-0.0107,-0.01,-0.0117,-0.0035,-0.0032,-0.0029,-0.0055,-0.0052,-0.005,0,0,0,0,0,-0.0013,-0.0013,-0.0024,-0.003,-0.0059,-0.0043,-0.0044,-0.0068,-0.0101,-0.0077,-0.0103,-0.0111,-0.0088,-0.0109,-0.0105,-0.0097,-0.0037,-0.0033,-0.0029,-0.0056,-0.0053,-0.005,0,0,0,0,0,0,0.0016,-0.0018,-0.003,-0.0041,-0.0031,-0.005,-0.0046,-0.006,-0.0062,-0.0077,-0.0098,-0.01,-0.0079,-0.0074,-0.0096,-0.0055,-0.0059,-0.0055,-0.008,-0.0077,-0.0075,-0.0055,-0.0116,0,0,0,0,0,0.0022,0.0013,-0.0002,-0.0004,-0.0006,-0.0023,-0.0023,-0.0032,-0.0044,-0.0047,-0.0046,-0.0052,-0.0058,-0.006,-0.0042,-0.0027,-0.0034,-0.0012,-0.001,-0.0009,0.0015,0.001,0.0013,-0.0015,-0.0015,-0.0015,0,0,0.0032,0.0013,0.0007,0.0003,-0.0005,0.0014,-0.0025,-0.0018,-0.001,-0.0044,-0.0025,-0.0033,-0.0046,-0.0033,-0.0023,-0.0035,-0.001,-0.0004,-0.0003,0.002,0.0014,0.0017,0.0019,-0.0012,-0.0013,-0.0013,0,0,0.0059,0.0031,0.004,0.0052,0.005,0.0043,0.0049,0.0049,0.0037,0.0057,0.0021,0.0006,0.0035,0.0002,-0.0014,0.0018,0.0012,0.0045,0.0057,0.0051,0.0052,0.0053,0.0008,0.0006,0.0034,0.0034,0.0034,0,0.0076,0.0077,0.0054,0.0076,0.0079,0.0059,0.0084,0.0077,0.0088,0.0082,0.0071,0.0074,0.0041,0.002,0.0018,0.0018,0.002,0.0031,0.0049,0.0051,0.0053,0.0007,0.0005,0.0033,0.0033,0.0033,0.0033,0,0.011,0.0123,0.013,0.0141,0.0155,0.0173,0.016,0.0173,0.0153,0.0148,0.0152,0.0111,0.011,0.009,0.0051,0.0053,0.005,0.0055,0.003,0.0053,0.0004,0.0002,0.0032,0.0032,0.0032,0.0032,0,0,0.0116,0.0146,0.0151,0.0173,0.0185,0.0202,0.0208,0.0212,0.0212,0.0219,0.0229,0.0174,0.0164,0.0149,0.0106,0.0081,0.0041,0.0077,0.0077,0.0012,0.002,-0.0036,-0.0044,0.0063,0.0064,0.0064,-0.0036,0,0.0151,0.0202,0.0204,0.026,0.0283,0.027,0.0283,0.0285,0.0273,0.029,0.0231,0.0242,0.0182,0.0177,0.014,0.0092,0.0045,0.0068,0.0029,0.0027,-0.0043,-0.0044,-0.0016,-0.0105,-0.0038,-0.0039,-0.0039,0,0.0175,0.021,0.0264,0.031,0.0317,0.0349,0.0354,0.037,0.0366,0.036,0.0353,0.0337,0.0289,0.025,0.0157,0.0189,0.0107,0.0054,0.0049,0.0016,-0.003,-0.0105,-0.0111,-0.0043,-0.0042,-0.0042,-0.0042,0,0.018,0.0245,0.0286,0.0304,0.0356,0.0371,0.0393,0.0395,0.0409,0.0422,0.0449,0.0404,0.0403,0.0317,0.0197,0.0189,0.0111,0.0074,-0.0063,-0.007,-0.0044,-0.0049,0.001,0.001,0.001,0.0011,0.0011,0,0.0197,0.0238,0.0298,0.0326,0.038,0.0404,0.0449,0.0457,0.0488,0.0524,0.0499,0.0505,0.0434,0.0377,0.0242,0.009,0.0136,-0.0056,-0.0089,-0.0056,-0.0061,0.0013,0.0015,0.0007,0.0008,0.0008,0.0009,0,0.0195,0.0231,0.0298,0.0365,0.0387,0.043,0.0502,0.0535,0.0561,0.0612,0.0631,0.0607,0.0506,0.0403,0.0262,0.015,0.0003,-0.0066,-0.0041,-0.007,-0.0199,-0.0197,-0.0252,-0.0255,-0.0257,-0.0259,-0.026,0,0.0201,0.0234,0.0324,0.0368,0.0405,0.0472,0.0517,0.0566,0.0597,0.0647,0.0665,0.0622,0.0556,0.0336,0.0148,-0.0075,-0.0079,-0.0181,-0.0214,-0.0195,-0.0221,-0.0215,-0.0211,-0.021,-0.0211,-0.0212,-0.0213,0,0.0223,0.0252,0.0308,0.0397,0.0463,0.0528,0.0591,0.0619,0.0676,0.0715,0.0714,0.0679,0.0487,0.0283,0.0037,-0.0116,-0.0142,-0.0211,-0.016,-0.0149,-0.0163,-0.0187,-0.0181,-0.022,-0.0219,-0.0219,-0.0218,-0.0218,0.0246,0.0281,0.0352,0.0428,0.0509,0.0562,0.0604,0.0658,0.0708,0.076,0.0716,0.0682,0.0492,0.0137,-0.007,-0.0252,-0.0281,-0.0333,-0.0327,-0.0321,-0.0298,-0.0315,-0.0399,-0.0399,-0.04,-0.04,-0.04,0,0.0266,0.0299,0.0374,0.0461,0.0524,0.058,0.0638,0.0655,0.0695,0.0773,0.0768,0.0566,0.035,0.0144,-0.0142,-0.0339,-0.0317,-0.0389,-0.0305,-0.0299,-0.0293,-0.0264,-0.0359,-0.0359,-0.0359,-0.0359,0,0,0.028,0.033,0.0351,0.0439,0.0511,0.0603,0.0633,0.0668,0.0708,0.0729,0.0753,0.0686,0.0424,0.0218,-0.004,-0.0181,-0.0187,-0.0211,-0.0228,-0.0094,-0.0084,-0.0254,-0.0203,0,0,0,0,0]}],[{"header":{"parameterUnit":"m.s-1","parameterCategory":2,"la1":30.2991,"la2":30.254,"lo1":-89.0895,"lo2":-89.0444,"dy":0.0017,"dx":0.0017,"nx":28,"ny":28,"refTime":"2025-08-24T03:00:00:Z","depth":"4","parameterNumber":2,"parameterNumberName":"U-component_of_CURRENTS"},"data":[0,0,0,0,0,0,0,0,0,0,0,0,0,0,0,0,0,0,0,0,0,0,0,0,0,0,0,0,0,0,0,0,0,0,0,0,0,0,0,0,0,0,0,0,0,0,0,0,0,0,0,0,0,0,0,0,0,0,0.0692,0.0692,0,0.069,0.0689,0.0689,0.074,0.0741,0.0743,0.0745,0.0716,0.0714,0.0711,0,0,0,0,0,0,0,0,0,0,0,0,0,0.0652,0.0653,0.0692,0.0692,0.0692,0.069,0.0689,0.0689,0.0739,0.0741,0.0743,0.0745,0.0717,0.0714,0.0711,0,0,0,0,0,0,0,0,0,0,0,0,0,0.0658,0.0653,0.0692,0.072,0.0722,0.069,0.0689,0.0689,0.0739,0.0741,0.0744,0.0746,0.0718,0.0714,0.0711,0.0639,0,0,0.07,0.0699,0,0,0,0,0,0,0,0,0.0658,0.0659,0.0715,0.0718,0.0721,0.0721,0.0665,0.0672,0.0738,0.0729,0.0745,0.0748,0.0715,0.0712,0.0702,0.0637,0.0636,0.07,0.0698,0.0696,0.0695,0,0,0,0,0,0,0,0.0658,0.0659,0.0687,0.0715,0.0719,0.0703,0.0707,0.0666,0.0705,0.073,0.0734,0.0739,0.0717,0.0705,0.0701,0.0636,0.07,0.0697,0.0695,0.0693,0.0601,0.06,0,0,0,0,0,0,0.0667,0.0659,0.0687,0.0688,0.0699,0.0702,0.0707,0.0715,0.0706,0.0708,0.0737,0.0742,0.071,0.0705,0.0701,0.0713,0.0696,0.0693,0.0691,0.0601,0.0601,0.06,0,0,0,0,0,0,0.0666,0.0669,0.0687,0.0676,0.0678,0.0701,0.071,0.0714,0.0727,0.0712,0.0714,0.075,0.0711,0.0705,0.0673,0.0709,0.0691,0.0688,0.0602,0.0601,0.06,0.0674,0,0,0,0,0,0,0.0665,0.0669,0.0682,0.0677,0.0679,0.0674,0.0708,0.0712,0.0726,0.0733,0.0722,0.0721,0.0713,0.0678,0.067,0.0704,0.0685,0.0602,0.0601,0.0601,0.0672,0.0676,0.0679,0,0,0,0,0,0.0663,0.0669,0.0682,0.0686,0.0695,0.0673,0.0672,0.0694,0.0724,0.0718,0.0714,0.0723,0.067,0.0674,0.0664,0.0698,0.0602,0.0601,0.0601,0.067,0.0675,0.0679,0,0,0,0,0,0,0.0656,0.0675,0.0689,0.0701,0.0692,0.0684,0.0687,0.0698,0.0689,0.0702,0.0697,0.0693,0.0689,0.0662,0.0667,0.0667,0.0645,0.0642,0.0701,0.0706,0.0709,0.0711,0.0683,0,0,0,0,0,0.0659,0.0674,0.0675,0.0683,0.0682,0.0685,0.0684,0.0693,0.0684,0.0686,0.0678,0.0671,0.067,0.0663,0.0644,0.0619,0.0606,0.0638,0.0642,0.0646,0.0639,0.0663,0.067,0.0598,0.0598,0.0598,0,0,0.0657,0.0671,0.0679,0.0682,0.0682,0.0675,0.0691,0.0687,0.0691,0.0678,0.0679,0.0677,0.0664,0.0659,0.0656,0.0646,0.0653,0.0645,0.0649,0.0639,0.0664,0.0671,0.0678,0.0597,0.0597,0.0597,0,0,0.064,0.0672,0.0669,0.0666,0.0668,0.0673,0.0676,0.0668,0.0681,0.0665,0.068,0.0685,0.0661,0.0669,0.0671,0.0668,0.0674,0.0679,0.0701,0.0726,0.0734,0.074,0.0715,0.0718,0.0681,0.0682,0.0682,0,0.0636,0.0642,0.0659,0.065,0.066,0.0676,0.0668,0.0672,0.0656,0.0665,0.0674,0.0682,0.0669,0.0692,0.0703,0.0682,0.0683,0.0695,0.0736,0.0741,0.0746,0.072,0.0723,0.0685,0.0685,0.0684,0.0684,0,0.0608,0.062,0.0617,0.0629,0.0632,0.0629,0.0642,0.0644,0.0672,0.0685,0.071,0.07,0.0713,0.0722,0.0713,0.0751,0.0735,0.0744,0.0735,0.0759,0.0728,0.0729,0.069,0.0689,0.0688,0.0687,0,0,0.0592,0.0598,0.0604,0.0607,0.0629,0.0625,0.064,0.0657,0.0688,0.0693,0.0737,0.074,0.0763,0.0763,0.0771,0.0787,0.0818,0.0787,0.0786,0.0779,0.0851,0.086,0.0862,0.0858,0.0859,0.086,0.081,0,0.057,0.0556,0.0575,0.0577,0.0573,0.0605,0.0628,0.065,0.0683,0.0723,0.0751,0.0799,0.0777,0.0815,0.0823,0.0827,0.0829,0.0828,0.0813,0.081,0.0832,0.0867,0.0863,0.0811,0.0812,0.0812,0.0812,0,0.0546,0.0544,0.0534,0.0566,0.0572,0.0584,0.0641,0.0663,0.0725,0.0763,0.081,0.0847,0.0876,0.0873,0.0869,0.088,0.0864,0.0856,0.0855,0.0839,0.0824,0.0783,0.0815,0.0815,0.0814,0.0814,0.0814,0,0.0525,0.053,0.0529,0.0534,0.0561,0.0577,0.0616,0.0673,0.071,0.0807,0.0851,0.0898,0.0931,0.0933,0.0912,0.0909,0.0908,0.0898,0.0875,0.0873,0.0847,0.0841,0.0897,0.0897,0.0897,0.0898,0.0898,0,0.0501,0.0509,0.052,0.0512,0.0539,0.0574,0.0625,0.0671,0.0753,0.0801,0.088,0.0917,0.0957,0.0962,0.0936,0.0909,0.0923,0.0878,0.0876,0.0872,0.087,0.0846,0.0841,0.0896,0.0896,0.0896,0.0897,0,0.048,0.0485,0.0477,0.0499,0.0518,0.0541,0.0625,0.0655,0.0752,0.0814,0.0859,0.0937,0.0961,0.0971,0.0971,0.0933,0.0919,0.0904,0.0876,0.0873,0.0847,0.0845,0.0862,0.0863,0.0863,0.0863,0.0863,0,0.0467,0.0456,0.0461,0.0457,0.0468,0.0516,0.0547,0.0648,0.068,0.0802,0.0815,0.0899,0.0937,0.0926,0.0949,0.0928,0.0919,0.0893,0.0886,0.0855,0.085,0.0849,0.0847,0.0864,0.0864,0.0864,0.0864,0,0.0437,0.044,0.0426,0.0419,0.043,0.0457,0.0508,0.0539,0.0648,0.0724,0.0792,0.0851,0.088,0.0908,0.0924,0.0896,0.091,0.0894,0.0893,0.0885,0.0856,0.0851,0.0849,0.0864,0.0864,0.0864,0.0864,0,0.0424,0.0404,0.0383,0.0381,0.0387,0.0395,0.0437,0.0486,0.0551,0.0687,0.0695,0.079,0.0857,0.089,0.0886,0.0899,0.0878,0.0842,0.0842,0.0842,0.0869,0.083,0.0833,0,0,0,0,0,0.0414,0.0383,0.0355,0.033,0.0332,0.0348,0.0402,0.0447,0.0543,0.0575,0.0651,0.0692,0.0767,0.081,0.0818,0.086,0.0862,0.0866,0.0815,0.0868,0.0868,0.0907,0,0,0,0,0,0,0.0394,0.0372,0.0338,0.0297,0.0279,0.0287,0.0325,0.0387,0.0421,0.0525,0.0565,0.0652,0.0719,0.0749,0.0801,0.0814,0.0772,0.0924,0.0923,0.0869,0.0868,0.0867,0.0907,0,0,0,0,0]},{"header":{"parameterUnit":"m.s-1","parameterCategory":2,"la1":30.2991,"la2":30.254,"lo1":-89.0895,"lo2":-89.0444,"dy":0.0017,"dx":0.0017,"nx":28,"ny":28,"refTime":"2025-08-24T03:00:00:Z","depth":"4","parameterNumber":3,"parameterNumberName":"V-component_of_CURRENTS"},"data":[0,0,0,0,0,0,0,0,0,0,0,0,0,0,0,0,0,0,0,0,0,0,0,0,0,0,0,0,0,0,0,0,0,0,0,0,0,0,0,0,0,0,0,0,0,0,0,0,0,0,0,0,0,0,0,0,0,0,-0.0137,-0.0138,0,-0.0222,-0.0223,-0.0224,-0.0246,-0.0245,-0.0245,-0.0244,-0.0349,-0.0352,-0.0355,0,0,0,0,0,0,0,0,0,0,0,0,0,-0.0057,-0.0058,-0.0137,-0.0138,-0.0139,-0.0221,-0.0223,-0.0224,-0.0246,-0.0245,-0.0244,-0.0244,-0.0347,-0.0351,-0.0355,0,0,0,0,0,0,0,0,0,0,0,0,0,-0.0113,-0.0058,-0.0137,-0.0159,-0.0162,-0.0221,-0.0223,-0.0224,-0.0246,-0.0245,-0.0244,-0.0243,-0.0346,-0.0351,-0.0356,-0.0407,0,0,-0.0372,-0.0374,0,0,0,0,0,0,0,0,-0.0109,-0.0116,-0.0155,-0.0158,-0.0161,-0.0221,-0.0233,-0.0286,-0.0246,-0.0216,-0.0244,-0.0243,-0.0307,-0.0316,-0.0336,-0.0412,-0.0416,-0.0372,-0.0375,-0.0377,-0.0379,0,0,0,0,0,0,0,-0.0105,-0.0113,-0.0172,-0.0156,-0.0159,-0.0185,-0.0192,-0.0243,-0.0268,-0.0218,-0.022,-0.0227,-0.0309,-0.0331,-0.0338,-0.0418,-0.0372,-0.0376,-0.038,-0.0382,-0.0491,-0.0491,0,0,0,0,0,0,-0.009,-0.0109,-0.017,-0.0175,-0.013,-0.0187,-0.0194,-0.0204,-0.0267,-0.0275,-0.0228,-0.0228,-0.0322,-0.0332,-0.0342,-0.0374,-0.0377,-0.0382,-0.0385,-0.0491,-0.0491,-0.0491,0,0,0,0,0,0,-0.0088,-0.0095,-0.0166,-0.0142,-0.0153,-0.0189,-0.02,-0.0206,-0.0232,-0.0273,-0.0282,-0.0247,-0.0322,-0.0335,-0.0381,-0.0379,-0.0384,-0.0389,-0.0492,-0.0491,-0.0491,-0.0458,0,0,0,0,0,0,-0.0085,-0.0094,-0.0101,-0.0141,-0.0153,-0.021,-0.0201,-0.0208,-0.0237,-0.0238,-0.0293,-0.0302,-0.0322,-0.0373,-0.0386,-0.0386,-0.0393,-0.0492,-0.0491,-0.0491,-0.046,-0.0457,-0.0455,0,0,0,0,0,-0.0082,-0.0102,-0.0101,-0.0109,-0.0161,-0.0211,-0.0221,-0.0243,-0.0239,-0.0261,-0.0283,-0.03,-0.038,-0.0378,-0.0393,-0.0394,-0.0492,-0.0492,-0.0491,-0.0461,-0.0458,-0.0455,0,0,0,0,0,0,-0.008,-0.0108,-0.0107,-0.0136,-0.017,-0.0214,-0.0239,-0.025,-0.0288,-0.0288,-0.0315,-0.0326,-0.0362,-0.0387,-0.0384,-0.0422,-0.0433,-0.0436,-0.0405,-0.0402,-0.04,-0.0376,-0.0397,0,0,0,0,0,-0.0079,-0.0097,-0.0129,-0.0154,-0.0171,-0.0204,-0.0228,-0.0245,-0.028,-0.0295,-0.0326,-0.0352,-0.0374,-0.0394,-0.0427,-0.0465,-0.0485,-0.0469,-0.0466,-0.0464,-0.0453,-0.0503,-0.0504,-0.049,-0.049,-0.049,0,0,-0.0085,-0.0103,-0.0114,-0.0154,-0.0182,-0.0203,-0.0218,-0.0261,-0.0266,-0.0303,-0.0327,-0.0358,-0.0383,-0.0411,-0.0428,-0.0431,-0.0474,-0.0464,-0.0462,-0.0452,-0.0503,-0.0504,-0.0506,-0.049,-0.049,-0.049,0,0,-0.0105,-0.0122,-0.0141,-0.0163,-0.0203,-0.0222,-0.0232,-0.0278,-0.0286,-0.0323,-0.033,-0.0349,-0.041,-0.0406,-0.0414,-0.0422,-0.0464,-0.0443,-0.0413,-0.0462,-0.0463,-0.0465,-0.0473,-0.0476,-0.0438,-0.0438,-0.0438,0,-0.0111,-0.0129,-0.0158,-0.0176,-0.0185,-0.0223,-0.0237,-0.0256,-0.0307,-0.0309,-0.0326,-0.0375,-0.0395,-0.0396,-0.0387,-0.0414,-0.045,-0.0422,-0.0459,-0.0461,-0.0464,-0.0472,-0.0475,-0.0436,-0.0436,-0.0436,-0.0437,0,-0.0136,-0.0147,-0.0164,-0.0182,-0.0202,-0.023,-0.0246,-0.0263,-0.0277,-0.0294,-0.0317,-0.0347,-0.0372,-0.0375,-0.0384,-0.04,-0.0421,-0.0454,-0.0466,-0.0463,-0.0472,-0.0476,-0.0434,-0.0434,-0.0435,-0.0435,0,0,-0.0145,-0.0174,-0.0174,-0.0172,-0.0203,-0.0221,-0.022,-0.0232,-0.023,-0.0273,-0.0281,-0.0292,-0.0322,-0.033,-0.0349,-0.0374,-0.0404,-0.0422,-0.0425,-0.0427,-0.0503,-0.0461,-0.0462,-0.047,-0.0471,-0.0472,-0.0495,0,-0.0151,-0.017,-0.0179,-0.0184,-0.0194,-0.0202,-0.0198,-0.021,-0.0229,-0.0254,-0.027,-0.0308,-0.0302,-0.0333,-0.0349,-0.0401,-0.0419,-0.0393,-0.0507,-0.0509,-0.0471,-0.0467,-0.0475,-0.0499,-0.05,-0.05,-0.0501,0,-0.0159,-0.0168,-0.0175,-0.0169,-0.0173,-0.0178,-0.0168,-0.0175,-0.0201,-0.0223,-0.0251,-0.0299,-0.0316,-0.0344,-0.0394,-0.0393,-0.0438,-0.0472,-0.0475,-0.045,-0.0476,-0.0508,-0.0509,-0.0509,-0.0508,-0.0507,-0.0507,0,-0.0144,-0.0154,-0.0154,-0.0156,-0.0166,-0.0155,-0.0158,-0.0169,-0.0167,-0.0227,-0.0248,-0.0295,-0.0327,-0.0393,-0.0435,-0.0446,-0.0509,-0.0535,-0.0527,-0.0524,-0.0569,-0.0568,-0.0586,-0.0586,-0.0586,-0.0586,-0.0586,0,-0.0139,-0.0135,-0.0147,-0.0149,-0.014,-0.0149,-0.0144,-0.0152,-0.0172,-0.0174,-0.0243,-0.0255,-0.0354,-0.0398,-0.0449,-0.048,-0.0518,-0.0509,-0.0531,-0.0551,-0.0548,-0.0571,-0.0569,-0.0587,-0.0587,-0.0586,-0.0586,0,-0.0128,-0.0138,-0.0137,-0.014,-0.0139,-0.0136,-0.0132,-0.0125,-0.015,-0.0157,-0.0186,-0.0239,-0.0293,-0.0364,-0.0464,-0.0477,-0.0534,-0.0544,-0.0527,-0.055,-0.051,-0.0506,-0.0533,-0.0532,-0.0531,-0.053,-0.053,0,-0.0123,-0.0126,-0.0132,-0.0125,-0.0127,-0.0123,-0.0114,-0.0125,-0.0112,-0.0126,-0.0124,-0.019,-0.0229,-0.0302,-0.04,-0.0491,-0.0504,-0.0529,-0.0534,-0.0488,-0.0507,-0.0505,-0.0502,-0.0528,-0.0528,-0.0527,-0.0527,0,-0.0111,-0.0119,-0.0122,-0.0109,-0.0098,-0.0085,-0.0069,-0.0056,-0.0056,-0.0077,-0.0063,-0.0122,-0.0172,-0.0265,-0.0343,-0.0411,-0.0513,-0.0519,-0.0522,-0.0527,-0.0482,-0.0502,-0.05,-0.0524,-0.0524,-0.0524,-0.0525,0,-0.0098,-0.0098,-0.0099,-0.0083,-0.0065,-0.0035,-0.0039,-0.0009,-0.0001,-0.0003,0.0001,-0.0069,-0.0124,-0.0222,-0.0291,-0.0357,-0.0373,-0.039,-0.04,-0.0405,-0.0364,-0.0288,-0.028,0,0,0,0,0,-0.008,-0.0075,-0.0062,-0.0041,-0.0019,-0.0007,0.0008,0.0005,0.0008,0.0037,0.0027,-0.0018,-0.011,-0.0167,-0.0221,-0.029,-0.0403,-0.0357,-0.0431,-0.0504,-0.0508,-0.0479,0,0,0,0,0,0,-0.0066,-0.0061,-0.0057,0.0,0.0026,0.0054,0.0063,0.0058,0.0074,0.0067,0.0016,-0.0013,-0.0116,-0.0067,-0.0213,-0.0238,-0.0288,-0.0411,-0.0411,-0.0502,-0.0506,-0.0509,-0.0481,0,0,0,0,0]}]]